Date String (YYYY-MM-DD hh:mm:ss) UTC,Instrument flags,Ambient pressure (hPa),Sample flow (lpm),Bypass flow (lpm),Sample temperature (°C),Ambient temperature (°C),ASC tube jacket temperature (°C),LED temperature (°C),Box temperature (°C),Sample RH (%),Span deviation,Mass concentration (μg/m³),Mass concentration (μg/m³),Mass concentration (μg/m³)
DateTimeUTC,F1_M11,P_M11,Q1_M11,Q2_M11,T1_M11,T2_M11,T3_M11,T4_M11,T5_M11,U1_M11,ZSPAN_M11,X0_M11,X2_M11,X1_M11
2021-10-06 03:00:00,,0829.0,5.00,0.00,29.7,28.8,00.0,38.6,31.5,13.9,0001.9,0015.23,0004.86,0003.79
2021-10-06 03:01:00,,0829.0,5.00,0.00,29.7,28.8,00.0,38.7,31.5,13.9,0002.2,0015.25,0004.91,0003.80
2021-10-06 03:02:00,,0829.0,5.01,0.00,29.7,28.9,00.0,38.7,31.6,13.8,0001.9,0014.35,0004.87,0003.81
2021-10-06 03:03:00,,0829.0,5.00,0.00,29.8,29.0,00.0,38.7,31.6,13.6,0002.0,0014.01,0004.89,0003.83
2021-10-06 03:04:00,,0829.0,5.00,0.00,29.8,29.0,00.0,38.7,31.7,13.6,0002.3,0014.27,0004.95,0003.84
2021-10-06 03:05:00,,0829.0,5.00,0.00,29.8,28.4,00.0,38.7,31.5,13.6,0002.3,0015.95,0004.98,0003.84
2021-10-06 03:06:00,,0829.0,5.00,0.00,29.7,26.4,00.0,38.7,31.1,13.7,0002.4,0016.07,0004.97,0003.85
2021-10-06 03:07:00,,0829.0,5.02,0.00,29.6,26.1,00.0,38.7,30.9,13.8,0002.8,0015.25,0004.94,0003.86
2021-10-06 03:08:00,,0829.0,5.00,0.00,29.5,26.4,00.0,38.7,30.9,13.9,0003.1,0015.32,0004.96,0003.88
2021-10-06 03:09:00,,0829.0,4.99,0.00,29.4,26.9,00.0,38.6,31.0,13.9,0003.0,0015.31,0004.92,0003.88
2021-10-06 03:10:00,,0829.0,5.01,0.00,29.4,27.3,00.0,38.6,31.0,13.9,0002.9,0015.35,0004.92,0003.88
2021-10-06 03:11:00,,0829.0,5.00,0.00,29.4,27.6,00.0,38.6,31.1,13.8,0003.0,0015.07,0004.96,0003.89
2021-10-06 03:12:00,,0829.0,5.00,0.00,29.5,27.9,00.0,38.6,31.2,13.8,0002.6,0015.77,0004.99,0003.88
2021-10-06 03:13:00,,0829.0,5.01,0.00,29.5,28.1,00.0,38.6,31.3,13.7,0002.8,0016.31,0005.01,0003.88
2021-10-06 03:14:00,,0829.0,4.99,0.00,29.5,28.2,00.0,38.6,31.3,13.7,0003.0,0016.65,0004.99,0003.87
2021-10-06 03:15:00,,0829.0,5.01,0.00,29.6,28.4,00.0,38.6,31.3,13.7,0002.6,0016.61,0004.93,0003.86
2021-10-06 03:16:00,,0829.0,5.01,0.00,29.6,28.5,00.0,38.6,31.4,13.6,0002.5,0015.86,0004.90,0003.87
2021-10-06 03:17:00,,0829.0,4.99,0.00,29.6,28.6,00.0,38.6,31.4,13.6,0002.3,0014.98,0004.96,0003.87
2021-10-06 03:18:00,,0828.9,5.01,0.00,29.7,28.7,00.0,38.6,31.5,13.5,0001.1,0014.80,0004.96,0003.86
2021-10-06 03:19:00,,0829.0,5.00,0.00,29.7,28.8,00.0,38.7,31.5,13.5,0000.5,0014.90,0004.98,0003.86
2021-10-06 03:20:00,,0828.9,4.98,0.00,29.7,28.8,00.0,38.7,31.5,13.5,-000.2,0015.36,0004.98,0003.86
2021-10-06 03:21:00,,0828.9,5.00,0.00,29.8,28.9,00.0,38.7,31.6,13.4,0000.2,0015.22,0005.02,0003.87
2021-10-06 03:22:00,,0828.9,5.01,0.00,29.8,28.9,00.0,38.7,31.6,13.4,0000.4,0014.53,0005.03,0003.86
2021-10-06 03:23:00,,0828.9,5.01,0.00,29.8,29.0,00.0,38.7,31.7,13.4,0000.6,0014.62,0004.99,0003.84
2021-10-06 03:24:00,,0828.9,5.00,0.00,29.8,29.0,00.0,38.8,31.7,13.3,0000.8,0014.44,0004.97,0003.84
2021-10-06 03:25:00,,0828.9,5.00,0.00,29.9,29.1,00.0,38.8,31.7,13.3,0000.7,0014.45,0004.96,0003.85
2021-10-06 03:26:00,,0828.9,5.01,0.00,29.9,28.0,00.0,38.8,31.4,13.3,0000.4,0015.46,0005.01,0003.84
2021-10-06 03:27:00,,0828.9,4.99,0.00,29.7,26.2,00.0,38.8,31.0,13.4,0000.4,0016.43,0005.02,0003.84
2021-10-06 03:28:00,,0828.9,5.01,0.00,29.6,26.1,00.0,38.7,30.9,13.5,0000.3,0016.44,0004.99,0003.84
2021-10-06 03:29:00,,0828.9,4.99,0.00,29.5,26.5,00.0,38.7,31.0,13.6,0001.9,0015.98,0004.91,0003.84
2021-10-06 03:30:00,,0828.9,5.01,0.00,29.5,26.9,00.0,38.7,31.0,13.6,0003.3,0016.11,0004.89,0003.82
2021-10-06 03:31:00,,0828.9,4.99,0.00,29.5,27.3,00.0,38.6,31.1,13.7,0003.5,0016.10,0004.88,0003.81
2021-10-06 03:32:00,,0828.9,5.00,0.00,29.5,27.6,00.0,38.6,31.2,13.7,0003.0,0016.16,0004.86,0003.80
2021-10-06 03:33:00,,0828.9,4.99,0.00,29.5,27.8,00.0,38.6,31.2,13.7,0002.8,0016.81,0004.84,0003.78
2021-10-06 03:34:00,,0829.0,5.01,0.00,29.5,28.0,00.0,38.6,31.3,13.7,0002.6,0016.24,0004.85,0003.78
2021-10-06 03:35:00,,0829.0,4.99,0.00,29.5,28.2,00.0,38.6,31.3,13.7,0002.5,0015.37,0004.86,0003.77
2021-10-06 03:36:00,,0829.0,5.00,0.00,29.6,28.4,00.0,38.6,31.4,13.6,0002.5,0014.79,0004.86,0003.77
2021-10-06 03:37:00,,0829.0,5.00,0.00,29.6,28.5,00.0,38.6,31.4,13.7,0002.4,0013.93,0004.81,0003.75
2021-10-06 03:38:00,,0829.0,5.02,0.00,29.6,28.6,00.0,38.6,31.4,14.0,0002.5,0012.18,0004.75,0003.74
2021-10-06 03:39:00,,0828.9,4.99,0.00,29.7,28.6,00.0,38.7,31.5,13.7,0002.5,0012.46,0004.70,0003.72
2021-10-06 03:40:00,,0829.0,5.00,0.00,29.7,28.7,00.0,38.7,31.5,13.7,0002.6,0013.21,0004.69,0003.72
2021-10-06 03:41:00,,0829.0,5.02,0.00,29.7,28.8,00.0,38.7,31.5,13.8,0002.2,0012.94,0004.71,0003.73
2021-10-06 03:42:00,,0828.9,4.99,0.00,29.8,28.8,00.0,38.7,31.6,13.7,0002.4,0012.85,0004.71,0003.72
2021-10-06 03:43:00,,0828.9,5.00,0.00,29.8,28.9,00.0,38.7,31.6,13.6,0002.7,0012.23,0004.70,0003.72
2021-10-06 03:44:00,,0828.9,5.01,0.00,29.8,28.9,00.0,38.7,31.6,13.8,0002.6,0011.46,0004.71,0003.73
2021-10-06 03:45:00,,0828.9,5.01,0.00,29.8,28.9,00.0,38.8,31.7,13.7,0002.8,0011.93,0004.70,0003.74
2021-10-06 03:46:00,,0828.8,4.99,0.00,29.9,29.0,00.0,38.8,31.7,13.7,0002.9,0012.78,0004.73,0003.74
2021-10-06 03:47:00,,0828.9,5.00,0.00,29.9,29.0,00.0,38.8,31.7,13.7,0002.9,0013.49,0004.75,0003.75
2021-10-06 03:48:00,,0828.9,5.01,0.00,29.9,29.0,00.0,38.8,31.8,13.7,0001.1,0015.01,0004.85,0003.77
2021-10-06 03:49:00,,0828.8,5.00,0.00,30.0,29.1,00.0,38.9,31.7,13.7,0000.0,0015.73,0004.93,0003.78
2021-10-06 03:50:00,,0828.9,4.99,0.00,29.9,27.9,00.0,38.9,31.4,13.7,0000.0,0015.83,0005.01,0003.78
2021-10-06 03:51:00,,0828.8,5.00,0.00,29.7,26.1,00.0,38.8,31.0,13.8,0000.0,0016.60,0005.08,0003.79
2021-10-06 03:52:00,,0829.0,5.01,0.00,29.6,26.1,00.0,38.8,30.9,13.9,0000.0,0018.77,0005.13,0003.80
2021-10-06 03:53:00,,0829.0,5.00,0.00,29.5,26.5,00.0,38.8,31.0,14.0,0000.0,0019.69,0005.21,0003.81
2021-10-06 03:54:00,,0828.9,4.99,0.00,29.5,26.9,00.0,38.7,31.0,14.0,0000.0,0020.55,0005.23,0003.82
2021-10-06 03:55:00,,0828.9,5.00,0.00,29.5,27.3,00.0,38.7,31.1,14.0,0000.0,0021.35,0005.26,0003.83
2021-10-06 03:56:00,,0828.9,4.99,0.00,29.5,27.6,00.0,38.7,31.2,13.9,0000.0,0022.43,0005.35,0003.83
2021-10-06 03:57:00,,0828.9,5.01,0.00,29.5,27.8,00.0,38.7,31.2,13.9,0000.0,0022.46,0005.36,0003.84
2021-10-06 03:58:00,,0828.9,4.99,0.00,29.5,28.0,00.0,38.7,31.3,13.8,0000.0,0023.55,0005.39,0003.84
2021-10-06 03:59:00,,0828.8,5.01,0.00,29.6,28.2,00.0,38.6,31.3,13.8,0000.0,0023.00,0005.35,0003.84
